Regional Weather Roundup
Issued by NWS

Home | Current Version | Previous Version | Text Only | Print | Product List | Glossary Off
Versions: 1 2 3 4 5 6 7 8 9 10 11 12 13 14 15 16 17 18 19 20 21 22 23 24 25 26 27 28 29 30 31 32 33 34 35 36 37 38 39 40 41 42 43 44 45 46 47 48 49 50

000
ASUS43 KBIS 020210
RWRND

NORTH DAKOTA REGIONAL WEATHER ROUNDUP
NATIONAL WEATHER SERVICE BISMARCK ND
900 PM CDT TUE SEP 01 2015

NOTE: "FAIR" INDICATES FEW OR NO CLOUDS BELOW 12,000 FEET WITH NO
SIGNIFICANT WEATHER AND/OR OBSTRUCTIONS TO VISIBILITY.


NDZ001>003-009>011-017-020300-
NORTHWEST NORTH DAKOTA

CITY           SKY/WX    TMP DP  RH WIND       PRES   REMARKS
WILLISTON      CLEAR     79  40  24 W10       29.75R
MINOT          CLEAR     74  55  51 SE6       29.76S
MINOT AFB      CLEAR     73  58  60 SE7       29.75S
$$

NDZ018>021-031>035-040>046-020300-
SOUTHWEST NORTH DAKOTA

CITY           SKY/WX    TMP DP  RH WIND       PRES   REMARKS
BISMARCK       PTCLDY    79  66  64 E5        29.78R
DICKINSON      CLEAR     72  56  57 SE8       29.79R
GARRISON         N/A     76  63  64 SE3       29.79R
HETTINGER ARPT CLEAR     72  55  55 CALM      29.83R
$$

NDZ004>008-012>016-024-026-027-054-020300-
NORTHEAST NORTH DAKOTA

CITY           SKY/WX    TMP DP  RH WIND       PRES   REMARKS
GRAND FORKS    PTCLDY    74  55  51 SE7       29.82R
GRND FRKS AFB  CLEAR     72  56  57 S7        29.83R
DEVILS LAKE    CLEAR     73  55  53 SE9       29.82R
$$

NDZ022-023-025-028>030-036>039-047>053-020300-
SOUTHEAST NORTH DAKOTA

CITY           SKY/WX    TMP DP  RH WIND       PRES   REMARKS
FARGO          CLEAR     77  63  61 E8        29.83S
JAMESTOWN      CLEAR     74  65  73 E9        29.82R
$$




USA.gov is the U.S. government's official web portal to all federal, state and local government web resources and services.